Location: Buena Vista Beach
(41.8098°N, 81.1279°W)
Time: 08:21:07
(UTC+00:00)

Cosmos 1939 Rocket - Pass Details

Date: 29 October 2020
Orbit: 532 x 584 km, 97.4° (Epoch: 28 November)

Event Time Altitude Azimuth Distance (km) Brightness Sun altitude
Rises 23:16:40 0° 157° (SSE) 2,728 6.2 -10.7°
Reaches altitude 10° 23:18:49 10° 153° (SSE) 1,829 5.3 -11.1°
Maximum altitude 23:22:41 56° 75° (ENE) 656 2.8 -11.9°
Drops below altitude 10° 23:26:32 10° 357° (N) 1,816 5.4 -12.6°
Sets 23:28:40 0° 353° (N) 2,706 6.4 -13.0°
